Theta_e
310 309 310 310 310 310 311 311 311 311 312 313 314 314 315 316 316 316 315 316 317 319 318 318 320 320 320 327 326 326 327 330 332 332 333 331 332 336 339 343 344 344 340 345 344
309 309 310 310 310 311 311 311 311 312 313 314 314 315 315 316 317 317 316 320 320 319 319 319 318 319 321 321 322 325 323 329 331 332 332 332 334 340 341 343 344 344 345 346 343
310 310 310 310 311 311 311 311 311 313 314 314 315 315 315 316 319 323 322 321 321 320 318 319 317 319 322 322 322 323 322 327 333 334 333 329 330 340 341 341 344 344 345 344 342
310 310 310 310 311 311 311 311 312 313 314 315 315 316 316 317 320 322 322 322 321 319 317 318 321 323 320 319 322 325 324 330 334 332 331 328 329 333 336 341 341 341 343 343 341
310 310 310 310 311 312 311 312 313 314 315 315 316 316 316 319 322 321 319 319 317 318 320 321 322 323 320 322 324 322 323 325 327 327 331 331 331 331 331 339 341 341 343 341 340
310 310 310 310 311 312 311 312 313 315 315 315 316 316 316 320 322 321 322 322 320 321 323 323 325 325 324 323 321 324 324 325 326 327 333 332 333 332 332 337 341 341 341 341 341
309 309 310 311 311 312 312 312 314 315 315 315 316 316 317 322 322 322 323 324 324 324 325 325 324 324 324 322 325 325 322 320 323 326 327 333 331 331 332 334 340 341 340 340 339
309 310 310 311 312 312 312 313 315 315 315 315 316 317 320 324 324 323 323 324 324 324 324 325 324 324 324 325 323 322 320 321 320 327 329 327 326 326 333 333 336 338 338 339 336
310 310 311 311 312 312 312 313 315 316 315 315 316 322 324 323 323 324 323 324 324 324 324 324 325 324 324 319 318 318 321 321 326 326 328 325 327 329 333 332 336 337 336 334 334
310 311 311 311 311 312 313 315 315 316 316 317 319 318 324 323 323 323 323 324 324 324 324 325 324 318 316 317 320 322 323 323 323 323 322 323 324 324 332 331 336 337 335 334 334
311 311 312 311 312 312 313 315 317 318 319 319 320 321 323 324 323 324 324 324 323 323 321 323 319 319 319 319 321 324 324 325 325 323 322 322 325 323 326 330 337 336 336 335 335
311 311 312 312 312 313 314 315 319 324 326 325 322 320 323 324 323 323 323 323 323 320 322 320 320 320 322 323 325 324 323 323 324 324 322 321 321 323 325 328 334 337 336 335 334
310 311 311 312 312 313 316 321 323 322 324 324 324 325 325 324 324 323 324 323 323 322 322 321 323 326 326 325 325 324 324 324 324 322 322 321 320 327 327 330 335 336 337 336 335
310 311 312 315 317 315 318 325 325 326 319 323 325 325 325 323 323 324 324 325 324 324 324 322 325 324 324 326 323 325 325 326 326 324 324 321 322 327 327 324 328 335 336 337 337
312 311 315 320 325 324 325 325 324 325 324 327 325 325 324 323 325 325 325 325 325 325 326 325 325 325 325 327 326 326 326 326 326 325 323 322 320 322 324 325 324 325 333 337 337
315 311 317 322 323 324 322 324 323 320 323 324 323 323 323 323 324 326 326 325 325 326 326 325 326 325 325 325 325 325 323 321 321 319 322 322 325 324 323 326 323 324 330 332 336
317 313 316 321 324 322 322 323 319 322 323 324 322 322 321 322 323 326 325 325 323 326 327 327 325 327 327 326 323 322 321 324 326 325 324 321 325 322 323 322 323 323 330 332 334
317 316 314 321 323 322 321 319 323 325 325 324 323 321 321 321 323 326 326 325 326 326 328 329 327 328 327 325 325 325 322 322 327 324 322 323 327 323 322 323 324 324 330 330 332
317 318 314 318 321 321 321 321 323 326 329 330 323 321 320 321 324 325 325 326 328 326 329 330 330 327 327 327 324 326 324 321 321 324 323 324 326 324 322 323 324 324 326 325 329
315 317 318 314 318 320 319 321 325 327 327 328 327 328 329 331 325 324 324 327 328 327 327 327 329 329 330 327 327 326 324 325 321 328 327 323 327 326 325 324 322 322 323 325 324
314 320 326 316 318 321 320 322 325 325 325 327 327 328 330 331 329 325 332 330 330 326 326 326 324 326 328 330 329 327 324 322 320 322 324 326 325 323 323 321 321 322 324 323 323
312 319 326 323 321 320 319 322 323 324 323 324 325 326 330 328 331 333 333 332 331 328 328 330 325 327 327 326 327 326 325 320 321 321 323 322 323 321 321 323 324 324 323 323 323
311 318 323 323 319 317 319 324 324 327 326 325 325 325 326 327 330 333 331 330 333 333 332 329 324 327 327 323 325 328 327 323 319 318 322 323 323 323 323 323 324 323 323 323 322
313 319 321 322 323 320 324 322 326 326 326 325 325 326 327 328 329 332 330 331 330 327 331 329 326 325 326 324 327 327 326 325 322 322 322 324 324 324 322 320 322 323 322 321 321
313 317 324 321 324 325 323 323 324 327 326 325 324 325 326 328 329 331 330 330 327 326 329 325 327 330 329 327 326 325 325 325 324 321 323 322 322 323 321 320 323 323 322 321 320
310 319 320 321 325 325 323 324 324 325 327 328 324 324 325 328 331 333 328 328 328 326 329 324 327 328 327 327 328 328 327 325 324 325 325 322 325 322 322 323 322 321 321 321 321
324 324 324 321 321 319 321 323 323 323 326 328 326 328 329 330 329 329 331 330 329 324 327 326 326 326 328 328 328 326 327 327 326 324 324 325 325 323 322 323 322 322 322 322 321
Wind_Speed
8 8 7 8 7 7 6 6 5 5 5 6 8 10 13 16 17 19 20 9 5 2 6 12 16 16 14 21 15 13 4 4 5 8 6 8 7 16 16 31 15 8 26 29 25
8 8 7 7 7 6 6 5 5 5 5 6 9 12 16 19 20 16 4 8 5 3 6 9 13 12 12 15 9 0 3 10 6 6 6 13 26 26 14 20 16 26 26 28 23
7 7 6 7 6 6 5 6 5 5 5 7 10 13 17 17 16 2 4 6 5 6 7 11 12 14 11 20 5 4 6 10 11 10 12 17 21 24 25 10 37 36 37 26 26
7 6 6 6 6 6 5 6 6 5 5 8 11 14 17 10 3 8 3 6 6 11 10 8 7 5 5 5 10 3 7 11 11 12 19 13 18 15 20 16 29 35 38 33 30
8 6 6 6 6 6 6 6 6 6 6 8 11 15 14 10 8 2 5 5 4 7 6 7 11 9 4 8 14 4 2 9 9 10 9 22 15 13 14 31 35 36 37 37 34
8 7 7 6 7 6 6 7 7 6 6 8 12 15 12 6 2 4 3 4 9 6 6 10 13 16 14 12 3 2 6 6 6 8 13 13 5 7 12 31 38 39 36 39 36
7 6 7 7 7 6 7 7 8 7 7 9 11 14 16 9 3 1 3 2 3 8 13 13 13 12 9 6 17 4 5 6 2 2 5 24 3 5 17 31 36 31 37 38 37
5 6 6 7 7 7 7 8 8 7 7 9 11 14 9 2 8 8 7 7 8 10 12 12 12 12 4 10 11 6 4 3 7 10 5 7 5 9 21 22 29 34 41 42 44
4 5 6 7 6 7 7 8 8 8 9 9 9 6 8 6 8 8 11 14 14 10 11 14 14 6 7 6 8 7 3 5 3 3 5 5 2 3 19 21 29 33 36 36 31
4 5 6 6 6 6 7 9 8 7 10 7 9 8 7 4 9 10 8 9 8 7 11 5 3 4 5 6 3 5 4 5 7 7 8 6 3 3 17 7 27 28 32 33 28
3 4 5 5 5 6 7 5 4 3 8 10 4 10 13 9 8 6 7 6 5 8 2 5 6 4 9 7 5 6 7 7 3 6 5 1 3 6 21 25 28 28 34 33 30
2 3 4 4 5 6 6 5 5 4 8 14 18 24 20 15 13 10 6 6 5 5 4 6 5 10 8 5 8 8 8 6 3 3 4 5 7 5 11 14 30 31 31 32 29
1 2 3 4 3 3 8 7 5 12 3 12 15 16 19 8 15 16 13 16 6 4 5 6 8 5 3 6 8 4 6 1 3 5 3 5 6 4 5 19 21 23 26 30 31
3 1 3 3 3 7 10 5 13 10 4 7 5 8 16 12 4 11 12 3 2 3 5 5 3 7 8 5 4 4 3 3 5 5 3 4 2 3 4 7 13 19 24 29 23
7 1 4 6 5 5 9 9 3 5 2 5 6 5 10 10 4 5 2 5 0 5 4 6 4 7 7 2 2 3 3 3 3 3 4 2 5 6 2 6 5 12 17 20 16
10 4 6 8 5 8 17 2 2 5 5 4 9 7 5 5 2 6 2 2 4 3 2 4 10 5 5 5 5 2 6 8 5 3 3 4 4 3 2 3 2 14 13 11 12
7 6 10 9 4 14 16 3 5 3 5 3 5 5 5 5 4 6 4 1 3 4 6 6 4 1 7 5 7 11 8 5 6 6 4 4 5 5 3 5 10 12 14 15 13
7 7 13 14 5 11 14 5 2 5 6 5 5 5 8 5 3 8 5 1 3 4 4 3 4 3 3 5 3 4 6 5 0 2 5 6 3 4 6 9 13 16 15 15 16
8 6 12 15 5 6 8 4 5 5 5 7 4 5 5 5 6 4 7 7 2 5 6 3 2 3 5 4 6 4 3 5 5 2 2 3 2 5 6 7 13 12 12 10 16
9 7 9 8 13 3 4 4 5 4 10 3 5 2 6 5 3 7 6 2 6 5 13 2 2 3 3 10 3 4 2 4 4 1 2 5 3 4 6 7 5 10 20 18 15
8 6 2 12 12 3 2 6 5 13 18 3 3 4 3 3 2 3 4 4 5 3 10 5 4 6 4 2 4 4 3 5 4 4 3 2 5 6 8 8 7 11 14 12 9
3 2 3 14 5 1 3 4 7 12 34 2 3 4 4 5 6 3 4 2 10 6 4 2 5 2 2 4 2 4 5 5 5 6 1 4 6 6 8 16 14 10 7 5 8
5 5 4 16 3 2 6 4 8 6 8 3 4 6 4 2 4 3 2 3 9 4 6 3 2 3 7 7 5 5 1 3 4 3 5 5 6 1 9 8 12 17 15 15 15
3 2 3 8 8 6 1 5 4 16 5 4 3 8 7 6 2 2 2 6 4 7 7 4 3 6 7 6 2 4 4 4 5 4 3 5 7 5 6 8 11 10 15 18 15
2 2 4 3 4 4 3 3 5 4 5 5 1 3 2 2 6 3 3 2 8 5 4 5 3 1 2 2 2 3 5 6 3 6 5 7 7 6 8 9 12 11 21 18 15
2 4 6 6 8 3 2 3 6 5 3 5 2 2 7 5 1 3 6 3 4 2 3 3 2 2 4 5 7 5 7 7 5 3 2 8 4 4 5 13 9 21 17 14 9
1 3 3 3 4 2 3 3 6 4 5 4 5 5 5 3 2 6 7 11 11 9 4 4 4 3 3 4 5 4 5 6 2 6 3 4 2 3 4 6 12 16 13 8 0
Wind_Direction
238 248 253 260 262 264 261 259 257 262 273 295 310 318 317 313 304 289 272 249 204 204 253 266 268 288 301 285 300 291 91 255 235 149 206 197 136 153 145 143 163 185 150 147 147
236 244 248 257 258 255 253 251 246 253 273 299 319 325 322 317 310 290 168 175 155 166 251 267 287 301 301 291 302 206 161 219 222 166 169 215 130 131 135 141 122 125 137 150 149
236 243 248 253 251 246 243 240 237 247 271 308 324 328 323 322 319 345 236 207 212 243 269 274 278 300 302 299 258 202 232 181 226 192 195 202 141 143 126 142 149 146 147 151 151
239 244 250 250 244 241 235 233 231 243 279 314 326 326 328 322 295 321 248 208 219 247 249 248 277 316 324 300 278 307 258 177 192 218 197 165 154 157 160 170 162 156 152 160 153
243 244 249 245 238 238 230 228 230 241 284 316 324 331 341 310 291 303 82 117 182 208 210 245 286 281 238 271 310 213 81 145 120 86 134 155 164 168 135 161 162 153 153 163 156
243 240 241 236 232 236 230 227 227 245 288 312 322 331 332 300 5 71 67 128 146 193 239 253 280 297 300 267 169 210 99 152 144 120 150 140 136 138 187 164 164 156 161 167 168
237 235 232 229 232 234 228 226 224 253 287 308 318 324 309 269 205 352 297 340 285 299 301 309 300 275 286 311 334 7 18 1 283 146 121 124 68 232 172 167 166 158 162 162 173
225 223 223 227 234 232 228 221 224 256 284 299 314 315 279 150 224 247 270 323 316 291 294 322 305 305 268 340 5 13 56 337 277 172 149 112 261 258 183 180 153 160 168 169 169
225 221 223 228 234 231 227 216 230 255 282 291 301 317 281 189 218 235 261 274 305 273 272 292 304 331 5 49 3 6 256 315 296 356 117 81 278 243 200 170 145 160 163 167 167
230 223 222 227 227 228 219 212 240 259 274 283 268 294 249 214 217 257 280 257 289 290 320 327 305 16 16 54 251 267 20 16 59 329 37 28 284 231 201 126 144 153 163 173 179
228 221 217 222 222 220 214 234 257 270 271 241 262 228 298 305 192 258 237 264 301 290 311 355 52 275 273 228 204 113 73 72 19 356 80 8 278 328 109 119 142 153 172 181 189
213 208 208 208 214 219 214 221 213 331 306 306 265 264 283 287 275 264 203 234 245 245 6 7 281 240 239 214 83 70 58 358 270 30 87 359 8 34 61 123 146 162 178 185 183
1 190 193 200 212 213 207 200 327 336 307 298 258 263 266 238 244 262 240 230 246 281 269 169 236 216 90 34 81 57 93 51 220 340 340 60 27 44 42 107 135 159 172 182 182
359 192 182 166 141 176 199 26 319 325 53 274 222 255 251 242 276 251 221 217 6 266 274 208 228 85 77 69 118 47 310 25 347 39 284 86 256 334 53 57 123 152 169 177 181
1 264 187 182 170 247 357 327 210 144 5 249 190 200 226 176 172 82 166 329 29 286 65 281 96 95 81 141 87 252 9 328 296 236 66 31 78 279 333 49 29 131 161 175 173
353 298 216 230 272 12 1 36 134 53 256 261 173 187 127 196 265 135 114 206 298 304 9 200 128 102 153 42 67 348 15 22 33 79 45 345 132 303 298 167 45 69 100 139 180
344 295 244 242 158 3 11 62 53 144 303 229 175 135 158 212 177 170 177 179 129 35 357 3 353 64 76 50 20 52 46 354 9 11 237 338 65 218 231 172 134 118 120 134 154
331 301 246 236 257 347 12 53 142 247 241 255 201 170 172 204 225 187 134 224 236 112 79 103 8 7 10 116 107 72 116 138 299 298 282 337 88 232 221 99 87 85 137 133 162
323 298 259 230 219 321 8 64 217 230 307 341 135 144 239 213 161 151 174 182 240 142 122 100 12 5 119 86 107 322 24 180 113 11 31 287 359 5 59 70 89 86 98 129 151
327 308 270 217 215 270 73 226 256 275 314 12 63 65 57 319 188 148 190 189 159 175 130 192 78 38 352 74 35 128 177 26 16 311 313 312 224 223 181 173 133 111 109 104 107
327 320 115 161 165 165 162 232 296 309 351 55 50 67 45 356 330 139 9 32 359 114 104 112 102 291 43 35 211 0 20 61 111 130 165 313 276 218 198 180 155 134 130 136 128
336 347 138 174 124 122 194 219 327 313 319 332 79 59 94 7 358 55 123 109 358 139 103 57 133 142 193 278 186 164 173 126 117 269 183 155 274 294 187 173 149 146 138 103 86
345 285 154 180 149 269 284 293 300 284 277 26 20 40 32 22 33 33 59 13 85 59 148 186 30 46 353 351 351 49 344 121 119 79 205 141 264 338 84 122 140 126 123 124 132
332 356 270 235 233 159 227 286 273 322 246 79 14 29 30 10 143 179 78 25 54 87 79 96 112 152 187 205 190 327 313 305 123 122 220 218 250 187 184 164 162 153 124 129 129
305 281 5 311 342 311 207 266 317 329 310 173 103 153 150 316 351 107 119 76 27 52 58 89 108 94 181 295 356 291 286 302 289 215 157 252 194 184 193 190 179 160 143 128 125
326 3 336 306 294 334 113 233 229 285 250 325 240 271 92 105 110 334 133 147 184 25 83 28 198 85 341 339 5 316 326 327 282 237 22 71 122 244 143 143 126 145 136 134 128
183 268 278 300 322 57 245 308 299 326 282 12 199 106 87 170 358 338 237 189 178 148 144 123 122 84 279 331 341 2 331 300 3 27 127 82 280 102 105 124 132 144 146 139 96